Location: Unspecified
(0.0000°N, 0.0000°E)
Time: 07:14:18
(UTC+00:00)

Tiangong 2 - Pass Details

Date: 25 May 2017
Orbit: 391 x 396 km, 42.8° (Epoch: 28 June)

Event Time Altitude Azimuth Distance (km) Brightness Sun altitude
Rises 17:56:56 0° 266° (W) 2,274 6.4 0.0°
Enters shadow 18:17:17 -28° 41° (NE) 6,687 7.2 -4.8°
Exits shadow 18:42:08 -73° 83° (E) 12,581 8.6 -10.6°
